Location: ?????????
(54.7630°N, 39.4991°E)
Time: 21:37:00
(UTC+00:00)

Cosmos 1833 Rocket - Pass Details

Date: 14 April 2026
Orbit: 831 x 838 km, 71.0° (Epoch: 16 May)

Event Time Altitude Azimuth Distance (km) Brightness Sun altitude
Exits shadow 23:35:46 34° 243° (WSW) 1,353 3.3 -19.7°
Maximum altitude 23:38:08 60° 309° (NW) 951 2.9 -19.5°
Drops below altitude 10° 23:43:42 10° 30° (NNE) 2,454 6.3 -19.0°
Sets 23:46:12 0° 34° (NE) 3,392 7.5 -18.8°
